Wind_Speed
16 16 17 17 16 15 15 16 16 15 15 15 15 15 15 15 15 13 13 13 13 13 13 13 14 15 15 16 17 16 16 17 18 18 18 17 17 17 17 16 16 15 15
16 16 16 17 17 16 16 16 16 15 15 15 15 15 15 16 16 15 15 15 14 14 14 14 14 14 15 16 17 17 17 17 18 18 18 18 18 18 17 17 17 16 16
15 16 16 17 17 16 15 16 16 16 16 15 15 14 15 16 17 17 16 16 16 16 15 15 15 16 16 17 17 17 18 18 18 18 18 19 19 19 19 18 18 17 17
15 16 17 17 17 16 16 16 16 16 16 16 15 15 15 16 16 17 17 18 18 18 17 16 16 17 17 17 18 19 19 19 19 18 18 18 19 19 19 20 19 18 17
16 16 16 17 17 16 16 16 16 16 16 16 16 16 17 17 18 18 19 19 18 18 18 18 18 18 18 19 19 20 20 20 20 19 19 18 19 19 20 20 20 19 18
17 16 16 16 17 17 16 16 16 17 17 17 17 17 18 18 18 19 19 19 19 19 19 19 18 18 19 19 20 21 21 21 21 21 21 20 20 20 20 20 20 20 20
17 17 17 16 16 17 17 17 17 17 18 18 17 18 19 19 18 19 19 19 19 20 20 19 19 19 19 19 20 21 21 22 22 22 22 22 22 21 21 21 21 21 21
17 17 17 16 17 17 17 16 16 17 18 17 18 19 19 19 19 19 19 19 19 19 19 20 20 20 20 20 20 21 22 22 23 23 23 24 23 23 23 22 22 22 22
18 18 18 17 17 17 17 17 16 16 16 18 19 19 19 19 18 18 19 19 19 19 20 20 20 19 19 20 21 21 22 23 23 24 24 24 25 24 23 23 23 23 23
18 18 18 18 18 17 18 18 17 16 16 17 17 17 17 18 17 17 18 19 19 20 20 21 21 21 21 20 21 21 22 23 23 24 25 25 25 25 25 25 25 24 24
18 18 19 19 19 18 18 18 17 17 17 17 17 17 18 18 18 18 17 18 18 19 19 20 20 21 21 21 21 21 22 23 24 24 25 25 26 26 27 27 26 26 26
18 19 18 18 19 18 18 17 18 17 17 18 18 18 18 19 19 18 18 18 18 19 19 19 20 20 21 21 22 22 23 23 24 24 25 26 26 27 27 27 27 27 27
18 18 18 19 19 18 17 16 17 17 18 18 19 18 19 19 20 19 19 19 19 19 20 20 21 21 21 21 22 23 23 24 24 25 26 27 27 28 28 29 29 29 29
18 18 18 19 18 17 17 17 17 17 18 18 19 19 19 18 19 20 19 20 20 20 20 21 21 21 22 22 22 22 23 24 24 24 25 26 27 27 27 29 29 28 28
18 18 18 18 17 17 17 18 17 17 18 18 19 19 19 19 18 19 20 19 20 19 19 19 21 21 22 22 23 22 23 23 24 24 24 26 26 27 27 28 28 28 29
16 17 18 17 17 17 17 17 17 17 17 18 18 18 18 19 19 19 19 19 19 19 19 20 21 21 21 22 23 23 24 23 24 24 25 25 26 27 28 28 28 28 29
17 17 17 16 16 16 17 17 17 17 17 17 17 17 17 17 17 17 18 18 18 19 19 20 20 21 21 22 23 24 24 24 24 24 25 25 26 27 28 28 29 29 29
17 17 16 16 17 17 17 17 17 17 17 17 16 17 18 18 17 17 18 18 19 19 20 20 20 21 21 22 22 23 24 24 24 25 25 26 26 27 27 28 29 29 29
17 16 16 17 17 17 17 18 18 17 17 17 17 17 17 18 18 19 19 19 20 20 20 20 20 21 22 23 23 23 24 24 24 25 25 25 26 26 27 27 28 28 29
17 17 18 18 18 18 18 18 18 18 18 18 18 19 19 19 20 20 20 20 21 21 21 21 21 22 23 24 24 24 24 25 25 25 25 25 25 26 27 27 27 27 28
18 18 18 19 18 18 18 18 18 18 19 19 19 19 20 20 21 21 21 21 22 22 22 22 22 22 22 23 24 24 25 25 25 26 26 26 27 27 27 27 27 28 29
18 18 18 18 19 19 18 18 18 18 18 19 19 20 20 20 20 22 22 22 22 22 22 22 22 22 23 23 24 24 24 25 25 26 26 26 27 27 27 27 28 28 29
19 19 19 19 18 18 18 18 18 18 19 19 19 20 20 19 21 21 22 22 21 21 21 21 22 22 23 23 24 24 24 25 25 26 26 26 27 27 27 28 28 29 29
21 20 20 19 19 19 19 19 18 18 18 18 19 19 20 20 21 22 22 21 21 21 21 21 22 22 23 23 23 23 24 24 25 26 26 26 26 27 27 28 29 30 30
20 20 19 19 19 19 19 19 18 18 18 19 19 20 20 21 22 22 22 22 22 22 22 21 22 22 23 23 23 23 23 23 23 24 25 25 25 26 26 27 29 30 30
20 20 20 20 20 19 19 19 19 19 19 19 20 20 20 21 22 22 22 22 22 23 23 22 23 23 23 23 23 22 23 23 23 24 24 24 24 25 26 27 28 28 28
Wind_Direction
291 288 286 286 283 278 276 274 273 274 271 270 267 260 259 256 255 259 260 261 264 264 262 260 255 253 255 255 251 249 248 246 245 245 244 244 246 247 250 252 254 254 253
290 289 287 287 286 283 280 275 272 270 269 267 267 264 262 258 258 262 262 262 261 260 261 262 259 259 257 255 252 250 248 247 249 247 245 245 246 248 249 251 255 255 254
288 287 288 289 286 284 283 279 273 269 267 265 266 265 263 263 265 264 263 263 262 260 258 259 257 258 257 255 252 251 250 250 250 251 250 249 248 249 251 251 254 256 256
290 289 290 290 285 281 281 280 277 271 268 266 265 265 266 267 269 268 264 261 261 261 259 258 259 257 255 255 253 251 250 250 251 252 253 252 250 251 250 251 253 256 256
291 292 291 290 287 283 282 278 274 271 267 267 266 266 266 266 270 271 267 264 261 259 260 259 259 259 258 257 255 253 251 250 250 251 251 253 252 252 251 252 253 255 256
291 291 291 292 290 288 285 279 272 267 266 267 267 268 268 267 267 269 269 266 265 262 261 263 261 261 261 260 257 255 252 251 252 252 251 252 252 253 253 254 255 257 258
292 291 290 291 291 289 287 281 275 269 266 267 268 269 270 270 269 268 267 267 266 263 262 262 262 262 261 260 258 256 253 252 252 252 253 254 254 254 253 255 256 258 259
293 294 292 290 289 291 289 284 277 274 272 269 270 271 269 270 270 268 267 268 266 263 262 261 263 262 262 262 259 257 254 253 253 254 255 255 255 255 255 254 254 256 257
291 293 292 290 290 291 290 286 281 277 276 273 272 274 274 271 271 271 268 268 268 265 262 262 264 264 265 262 260 259 255 254 254 255 255 255 256 256 255 255 254 256 257
291 293 291 290 290 288 287 286 282 276 274 274 275 277 277 275 273 273 271 271 268 267 266 264 265 266 267 263 261 259 257 254 254 256 256 256 256 256 256 255 256 258 258
291 291 290 289 289 288 285 283 279 276 273 274 275 276 277 275 274 274 274 272 268 266 266 264 264 265 266 265 264 262 260 258 256 256 257 257 258 257 257 257 257 258 258
291 290 287 286 288 288 285 281 277 276 274 274 276 277 277 274 272 275 276 273 269 267 266 265 263 264 267 266 265 264 262 259 257 257 257 259 259 259 258 258 258 259 258
295 294 289 288 288 288 285 282 280 276 275 275 276 278 277 275 271 272 273 273 271 269 269 269 267 266 266 266 266 265 263 262 260 259 258 259 260 260 259 259 259 259 258
295 295 294 291 289 286 284 283 283 280 279 278 277 276 277 275 272 272 274 276 272 271 272 271 271 270 269 267 266 265 265 265 263 262 260 260 261 261 261 261 260 258 257
294 295 297 295 290 286 285 285 283 282 280 278 278 276 275 274 274 273 275 277 277 274 271 272 273 272 271 268 267 265 263 263 263 262 262 262 261 261 262 261 260 259 259
296 298 298 296 292 288 287 284 282 282 279 277 276 275 273 272 272 274 276 278 278 277 276 276 275 273 271 270 269 267 264 263 264 264 263 263 263 262 260 260 260 261 260
295 298 297 296 294 291 286 282 282 282 280 278 276 275 274 276 279 279 280 282 281 281 280 280 277 275 274 272 271 269 266 265 265 266 266 265 264 262 261 260 261 261 261
291 294 296 297 296 294 290 286 285 285 285 283 280 278 277 277 279 280 282 285 285 283 282 283 280 278 277 278 276 273 270 267 266 267 267 265 263 262 263 263 261 260 260
290 291 294 296 297 295 291 289 287 284 283 281 280 280 280 280 280 282 284 285 286 284 284 285 284 281 282 282 279 276 272 269 268 269 267 264 264 264 264 263 260 258 259
290 290 292 294 294 293 291 291 289 283 281 279 279 279 278 279 279 282 285 287 287 285 285 285 285 283 283 281 279 276 275 273 272 271 267 266 265 265 264 264 262 260 261
290 290 291 292 292 292 291 291 289 285 282 280 280 279 277 278 280 282 284 286 287 286 285 284 285 285 285 283 280 277 276 274 274 273 271 269 268 268 266 265 263 263 263
289 289 292 293 293 292 290 289 288 286 283 282 281 279 278 280 280 282 285 287 287 287 287 286 288 287 287 285 283 279 277 276 274 274 273 271 268 266 264 262 263 264 265
290 289 291 291 293 293 292 290 288 286 284 282 280 280 279 280 282 285 287 288 288 290 290 288 289 289 288 287 285 282 280 279 276 274 274 273 270 268 267 265 264 264 265
291 292 291 291 291 291 291 290 286 284 284 282 282 282 281 282 285 286 286 287 288 290 291 289 290 290 290 288 287 284 282 281 277 276 275 273 272 271 268 267 267 266 265
294 293 291 293 293 292 292 292 290 286 284 283 282 283 282 283 285 285 285 286 288 289 290 289 292 292 290 289 287 284 281 280 278 277 277 274 272 272 269 268 268 268 267
292 292 291 292 294 292 292 290 290 287 285 284 284 285 284 284 285 284 285 287 288 289 289 290 292 292 290 289 288 284 281 279 278 278 279 277 274 272 270 268 267 267 267
Height
5851 5851 5850 5850 5849 5848 5848 5848 5848 5848 5848 5848 5849 5849 5851 5851 5852 5852 5854 5855 5857 5857 5858 5859 5860 5861 5862 5863 5864 5865 5866 5868 5870 5871 5873 5875 5876 5878 5879 5881 5882 5883 5884
5848 5847 5847 5846 5845 5844 5844 5844 5844 5844 5844 5844 5845 5846 5847 5847 5848 5849 5850 5852 5853 5854 5854 5855 5856 5857 5858 5859 5860 5862 5863 5865 5866 5868 5869 5871 5873 5874 5876 5877 5878 5880 5881
5845 5844 5843 5842 5841 5840 5840 5839 5839 5840 5840 5841 5841 5842 5843 5843 5845 5846 5846 5848 5849 5850 5850 5851 5852 5853 5854 5856 5857 5858 5859 5861 5862 5864 5865 5867 5869 5870 5872 5873 5875 5876 5877
5841 5840 5839 5838 5837 5836 5836 5836 5835 5836 5836 5837 5838 5838 5839 5840 5841 5842 5842 5843 5844 5845 5846 5847 5848 5849 5850 5851 5853 5854 5856 5857 5858 5860 5861 5863 5865 5866 5868 5869 5871 5872 5873
5838 5837 5836 5835 5833 5832 5832 5832 5832 5832 5833 5833 5834 5835 5835 5836 5836 5837 5837 5838 5840 5841 5842 5843 5844 5844 5846 5847 5848 5849 5851 5852 5854 5856 5857 5859 5860 5862 5864 5865 5867 5868 5869
5834 5833 5832 5831 5830 5829 5828 5828 5828 5828 5829 5829 5830 5831 5831 5831 5831 5832 5832 5833 5834 5836 5837 5838 5839 5840 5841 5842 5843 5845 5846 5848 5849 5851 5852 5854 5856 5857 5859 5861 5862 5863 5865
5831 5830 5829 5828 5827 5826 5825 5824 5824 5824 5825 5825 5826 5826 5826 5826 5826 5827 5828 5828 5829 5830 5832 5833 5834 5835 5836 5837 5838 5839 5841 5842 5844 5846 5847 5849 5851 5852 5854 5855 5857 5858 5859
5827 5826 5825 5824 5824 5823 5822 5821 5821 5820 5820 5820 5821 5821 5822 5822 5822 5822 5822 5823 5823 5825 5826 5828 5829 5830 5831 5832 5833 5834 5835 5837 5839 5840 5842 5843 5845 5847 5848 5850 5851 5853 5854
5823 5822 5821 5821 5820 5819 5818 5817 5817 5817 5816 5816 5816 5816 5816 5816 5817 5817 5817 5818 5819 5820 5821 5822 5823 5824 5825 5826 5827 5828 5829 5831 5832 5834 5836 5837 5839 5841 5842 5844 5845 5847 5848
5819 5818 5817 5817 5816 5815 5815 5814 5813 5813 5812 5812 5812 5811 5811 5811 5811 5812 5813 5814 5814 5815 5816 5817 5818 5819 5819 5820 5821 5822 5823 5825 5826 5828 5829 5831 5833 5834 5836 5837 5839 5841 5842
5815 5814 5813 5813 5812 5811 5810 5810 5809 5808 5808 5808 5808 5807 5807 5806 5806 5807 5808 5809 5809 5810 5810 5812 5812 5813 5814 5814 5815 5817 5818 5819 5820 5821 5823 5825 5826 5828 5829 5831 5832 5834 5835
5812 5810 5809 5808 5808 5807 5806 5805 5805 5804 5804 5803 5803 5802 5802 5802 5802 5802 5802 5803 5804 5804 5805 5805 5806 5807 5808 5809 5809 5811 5812 5812 5814 5815 5817 5818 5820 5821 5823 5824 5825 5827 5828
5807 5806 5805 5804 5803 5802 5801 5801 5800 5800 5799 5799 5798 5798 5797 5797 5797 5798 5798 5798 5799 5799 5799 5800 5800 5801 5802 5802 5803 5804 5805 5806 5807 5808 5810 5811 5812 5814 5815 5816 5818 5819 5820
5803 5802 5801 5799 5798 5797 5797 5796 5796 5795 5795 5794 5794 5793 5793 5793 5793 5793 5793 5793 5793 5794 5794 5794 5794 5795 5796 5796 5797 5798 5798 5799 5800 5801 5802 5804 5805 5806 5807 5808 5810 5811 5812
5799 5798 5796 5795 5794 5793 5792 5792 5791 5791 5790 5790 5789 5789 5788 5788 5788 5788 5788 5788 5788 5788 5789 5789 5789 5789 5789 5790 5790 5791 5792 5793 5793 5794 5795 5796 5797 5799 5800 5800 5801 5802 5804
5795 5794 5792 5791 5790 5789 5788 5787 5787 5786 5786 5785 5784 5784 5784 5783 5783 5783 5783 5782 5782 5783 5783 5783 5783 5783 5783 5783 5783 5784 5785 5786 5787 5787 5788 5788 5789 5790 5791 5792 5793 5794 5796
5791 5790 5788 5787 5786 5784 5783 5783 5782 5782 5781 5780 5780 5780 5779 5779 5779 5778 5778 5778 5777 5777 5777 5778 5777 5777 5777 5777 5777 5777 5778 5778 5779 5780 5780 5781 5781 5782 5783 5784 5785 5786 5787
5787 5785 5784 5783 5782 5780 5779 5778 5777 5777 5776 5776 5775 5775 5775 5775 5774 5774 5774 5773 5772 5771 5771 5771 5771 5771 5770 5770 5770 5770 5770 5771 5772 5772 5772 5773 5774 5774 5775 5776 5777 5778 5779
5782 5781 5780 5779 5777 5776 5775 5773 5773 5772 5772 5771 5771 5771 5770 5770 5770 5769 5769 5768 5767 5766 5766 5766 5766 5765 5764 5764 5763 5763 5763 5764 5764 5765 5765 5765 5766 5767 5767 5768 5769 5770 5771
5778 5777 5776 5774 5773 5771 5770 5769 5767 5767 5766 5766 5766 5766 5766 5765 5765 5765 5764 5763 5762 5761 5760 5760 5760 5759 5758 5757 5757 5757 5756 5757 5757 5757 5758 5758 5758 5759 5760 5760 5761 5762 5763
5773 5772 5771 5770 5768 5766 5765 5764 5763 5762 5761 5761 5761 5760 5760 5760 5760 5759 5758 5758 5757 5756 5755 5754 5753 5753 5752 5751 5750 5749 5749 5749 5749 5749 5750 5750 5751 5751 5752 5752 5753 5753 5754
5768 5767 5766 5764 5762 5761 5759 5758 5757 5756 5756 5756 5755 5755 5755 5755 5754 5754 5753 5752 5751 5750 5749 5748 5747 5746 5745 5744 5743 5742 5741 5742 5742 5742 5742 5742 5743 5743 5744 5744 5745 5745 5745
5763 5762 5761 5759 5757 5755 5754 5753 5752 5751 5751 5750 5750 5750 5749 5749 5749 5748 5747 5746 5745 5744 5743 5742 5741 5739 5738 5737 5736 5734 5734 5734 5734 5733 5734 5734 5734 5735 5735 5735 5736 5736 5737
5758 5757 5755 5754 5752 5751 5749 5748 5746 5746 5745 5745 5744 5744 5743 5743 5742 5742 5741 5740 5739 5737 5736 5735 5734 5733 5731 5730 5728 5727 5726 5726 5725 5725 5725 5726 5726 5726 5726 5726 5727 5727 5727
5753 5751 5750 5748 5747 5746 5744 5743 5742 5741 5740 5740 5739 5738 5737 5737 5736 5735 5735 5734 5733 5731 5730 5729 5727 5726 5724 5723 5721 5720 5719 5718 5718 5717 5717 5717 5718 5718 5718 5718 5718 5718 5718
5747 5746 5744 5743 5742 5740 5739 5738 5736 5736 5735 5734 5733 5732 5731 5731 5730 5729 5728 5727 5726 5725 5723 5722 5721 5719 5717 5716 5714 5713 5712 5711 5711 5710 5709 5709 5709 5709 5710 5709 5709 5708 5708